TimeCDT,TemperatureF,Dew PointF,Humidity,Sea Level PressureIn,VisibilityMPH,Wind Direction,Wind SpeedMPH,Gust SpeedMPH,PrecipitationIn,Events,Conditions,WindDirDegrees,DateUTC
12:53 AM,50.0,39.9,68,29.77,10.0,SSE,5.8,-,N/A,,Partly Cloudy,160,2014-03-19 05:53:00
1:53 AM,51.1,41.0,68,29.75,10.0,SSE,12.7,-,N/A,,Mostly Cloudy,160,2014-03-19 06:53:00
2:53 AM,50.0,41.0,71,29.74,10.0,South,8.1,-,N/A,,Scattered Clouds,170,2014-03-19 07:53:00
3:53 AM,50.0,41.0,71,29.73,10.0,South,11.5,-,N/A,,Clear,190,2014-03-19 08:53:00
4:53 AM,48.9,41.0,74,29.74,10.0,SW,8.1,-,N/A,,Clear,220,2014-03-19 09:53:00
5:53 AM,50.0,43.0,77,29.77,10.0,SW,9.2,-,N/A,,Clear,220,2014-03-19 10:53:00
6:53 AM,50.0,42.1,74,29.80,10.0,SW,12.7,19.6,N/A,,Partly Cloudy,230,2014-03-19 11:53:00
7:53 AM,48.9,33.1,54,29.85,10.0,West,13.8,-,N/A,,Clear,270,2014-03-19 12:53:00
8:53 AM,50.0,33.1,52,29.88,10.0,West,16.1,28.8,N/A,,Clear,260,2014-03-19 13:53:00
9:53 AM,52.0,35.1,53,29.93,10.0,WNW,19.6,27.6,N/A,,Clear,300,2014-03-19 14:53:00
10:53 AM,53.1,36.0,52,29.98,10.0,WNW,13.8,21.9,N/A,,Clear,290,2014-03-19 15:53:00
11:53 AM,55.0,36.0,49,30.00,10.0,WNW,15.0,-,N/A,,Scattered Clouds,300,2014-03-19 16:53:00
12:53 PM,55.9,35.1,45,30.02,10.0,West,16.1,23.0,N/A,,Scattered Clouds,280,2014-03-19 17:53:00
1:53 PM,55.0,34.0,45,30.03,10.0,NW,16.1,-,N/A,,Partly Cloudy,310,2014-03-19 18:53:00
2:53 PM,55.0,34.0,45,30.03,10.0,West,10.4,-,N/A,,Partly Cloudy,280,2014-03-19 19:53:00
3:53 PM,57.9,34.0,41,30.04,10.0,West,10.4,18.4,N/A,,Clear,280,2014-03-19 20:53:00
4:53 PM,57.9,33.1,39,30.03,10.0,NNW,10.4,-,N/A,,Clear,340,2014-03-19 21:53:00
5:53 PM,57.9,30.9,36,30.04,10.0,NNW,9.2,-,N/A,,Clear,330,2014-03-19 22:53:00
6:53 PM,57.0,30.9,37,30.06,10.0,West,4.6,-,N/A,,Clear,270,2014-03-19 23:53:00
7:53 PM,53.1,30.0,41,30.09,10.0,West,3.5,-,N/A,,Clear,270,2014-03-20 00:53:00
8:53 PM,51.1,30.0,44,30.12,10.0,WNW,4.6,-,N/A,,Clear,300,2014-03-20 01:53:00
9:53 PM,48.9,30.0,48,30.14,10.0,WNW,5.8,-,N/A,,Clear,300,2014-03-20 02:53:00
10:53 PM,46.9,30.0,52,30.16,10.0,WNW,4.6,-,N/A,,Clear,300,2014-03-20 03:53:00
11:53 PM,45.0,30.0,56,30.17,10.0,Calm,Calm,-,N/A,,Clear,0,2014-03-20 04:53:00